[[{"header":{"parameterUnit":"m.s-1","parameterCategory":1,"la1":30.2991,"la2":30.254,"lo1":-89.0895,"lo2":-89.0444,"dy":0.0017,"dx":0.0017,"nx":28,"ny":28,"refTime":"2024-06-12T03:00:00:Z","depth":0,"parameterNumber":2,"parameterNumberName":"U-component_of_WINDS"},"data":[0,0,0,0,0,0,0,0,0,0,0,0,0,0,0,0,0,0,0,0,0,0,0,0,0,0,0,0,0,0,0,0,0,0,0,0,0,0,0,0,0,0,0,0,0,0,0,0,0,0,0,0,0,0,0,0,0,0,-1.579,-1.579,0,-1.578,-1.578,-1.578,-1.5765,-1.5764,-1.5764,-1.5764,-1.5751,-1.5751,-1.5751,0,0,0,0,0,0,0,0,0,0,0,0,0,-1.5793,-1.5793,-1.579,-1.579,-1.579,-1.578,-1.578,-1.578,-1.5765,-1.5764,-1.5764,-1.5764,-1.5751,-1.5751,-1.5751,0,0,0,0,0,0,0,0,0,0,0,0,0,-1.5788,-1.5793,-1.579,-1.5781,-1.578,-1.578,-1.578,-1.578,-1.5765,-1.5764,-1.5764,-1.5764,-1.5751,-1.5751,-1.5751,-1.5758,0,0,-1.5751,-1.5751,0,0,0,0,0,0,0,0,-1.5789,-1.5788,-1.5782,-1.5782,-1.5781,-1.5773,-1.5777,-1.5773,-1.5765,-1.577,-1.5764,-1.5763,-1.5759,-1.5758,-1.5757,-1.5758,-1.5757,-1.5751,-1.5751,-1.575,-1.575,0,0,0,0,0,0,0,-1.5789,-1.5789,-1.5786,-1.5782,-1.5781,-1.5777,-1.5776,-1.5776,-1.5767,-1.577,-1.5769,-1.5768,-1.5758,-1.5757,-1.5756,-1.5757,-1.5751,-1.575,-1.575,-1.575,-1.5765,-1.5765,0,0,0,0,0,0,-1.5791,-1.5789,-1.5786,-1.5786,-1.5784,-1.5777,-1.5776,-1.5776,-1.5767,-1.5765,-1.5768,-1.5767,-1.5757,-1.5757,-1.5756,-1.5765,-1.575,-1.575,-1.575,-1.5764,-1.5765,-1.5765,0,0,0,0,0,0,-1.5791,-1.5791,-1.5787,-1.5787,-1.5786,-1.5778,-1.5778,-1.5776,-1.5775,-1.5766,-1.5764,-1.5769,-1.5757,-1.5756,-1.5758,-1.5764,-1.575,-1.575,-1.5764,-1.5764,-1.5765,-1.5782,0,0,0,0,0,0,-1.5791,-1.5791,-1.5794,-1.5787,-1.5786,-1.579,-1.5778,-1.5776,-1.5775,-1.5774,-1.5766,-1.5764,-1.5757,-1.5759,-1.5758,-1.5764,-1.575,-1.5763,-1.5764,-1.5765,-1.5781,-1.5783,-1.5785,0,0,0,0,0,-1.5791,-1.5798,-1.5794,-1.5794,-1.579,-1.579,-1.5789,-1.5781,-1.5776,-1.5778,-1.5773,-1.5764,-1.5764,-1.5759,-1.5758,-1.5764,-1.5763,-1.5764,-1.5765,-1.578,-1.5783,-1.5785,0,0,0,0,0,0,-1.5804,-1.5797,-1.5793,-1.5798,-1.5795,-1.5787,-1.5791,-1.5784,-1.5782,-1.5781,-1.577,-1.5769,-1.5773,-1.5768,-1.5763,-1.5771,-1.5762,-1.5763,-1.5774,-1.5776,-1.5778,-1.5779,-1.575,0,0,0,0,0,-1.5808,-1.581,-1.5803,-1.5808,-1.5807,-1.5799,-1.5799,-1.5793,-1.5789,-1.5788,-1.5782,-1.5778,-1.5777,-1.5776,-1.5775,-1.578,-1.5779,-1.5784,-1.5786,-1.5788,-1.5789,-1.5792,-1.5795,-1.5768,-1.5768,-1.5768,0,0,-1.5815,-1.5812,-1.5813,-1.581,-1.5808,-1.5809,-1.5798,-1.58,-1.58,-1.5788,-1.579,-1.5786,-1.578,-1.5785,-1.5786,-1.5781,-1.5796,-1.5789,-1.5791,-1.579,-1.5794,-1.5796,-1.5798,-1.5769,-1.5769,-1.5769,0,0,-1.5829,-1.5826,-1.5831,-1.5829,-1.5825,-1.582,-1.5821,-1.5815,-1.5813,-1.5815,-1.5806,-1.5806,-1.5804,-1.5802,-1.58,-1.5815,-1.5807,-1.5814,-1.5825,-1.5829,-1.5831,-1.5833,-1.5839,-1.5841,-1.5815,-1.5815,-1.5815,0,-1.5838,-1.5841,-1.5834,-1.5837,-1.5836,-1.5826,-1.583,-1.5828,-1.5824,-1.5824,-1.5818,-1.5817,-1.5813,-1.5817,-1.582,-1.5819,-1.582,-1.5815,-1.5831,-1.5833,-1.5835,-1.584,-1.5842,-1.5816,-1.5816,-1.5816,-1.5816,0,-1.5853,-1.5855,-1.5858,-1.5856,-1.5856,-1.5859,-1.5853,-1.5853,-1.5848,-1.5844,-1.5847,-1.5841,-1.5839,-1.584,-1.5834,-1.5843,-1.584,-1.5834,-1.5824,-1.5838,-1.5843,-1.5845,-1.5817,-1.5817,-1.5817,-1.5817,0,0,-1.5873,-1.5869,-1.587,-1.587,-1.5866,-1.5867,-1.587,-1.5869,-1.587,-1.5867,-1.587,-1.587,-1.5864,-1.5862,-1.5856,-1.5859,-1.5872,-1.5852,-1.5852,-1.5856,-1.5883,-1.5889,-1.5891,-1.5867,-1.5868,-1.5868,-1.5884,0,-1.5887,-1.5893,-1.5887,-1.5895,-1.5897,-1.5888,-1.5891,-1.5889,-1.5885,-1.5886,-1.5881,-1.5881,-1.5873,-1.5872,-1.5875,-1.587,-1.5877,-1.5869,-1.5869,-1.587,-1.5872,-1.5894,-1.5899,-1.5914,-1.5885,-1.5886,-1.5886,0,-1.5903,-1.5903,-1.5911,-1.5908,-1.5908,-1.5911,-1.5911,-1.5912,-1.5909,-1.5906,-1.5905,-1.5898,-1.5901,-1.5892,-1.5896,-1.5891,-1.5891,-1.5888,-1.5889,-1.5889,-1.5879,-1.5894,-1.5919,-1.5921,-1.5889,-1.5889,-1.5888,0,-1.5918,-1.592,-1.5925,-1.5925,-1.5921,-1.5924,-1.5922,-1.5919,-1.592,-1.5919,-1.5919,-1.5918,-1.5918,-1.5917,-1.591,-1.5905,-1.5916,-1.5906,-1.5913,-1.5913,-1.5916,-1.5916,-1.5941,-1.5915,-1.5915,-1.5915,-1.5915,0,-1.5934,-1.5939,-1.5933,-1.5936,-1.5942,-1.5935,-1.5941,-1.5938,-1.5936,-1.5939,-1.593,-1.5933,-1.5924,-1.5925,-1.592,-1.5924,-1.5924,-1.5922,-1.592,-1.5923,-1.5923,-1.5923,-1.5922,-1.5916,-1.5916,-1.5916,-1.5915,0,-1.5952,-1.5947,-1.5953,-1.595,-1.5949,-1.5954,-1.595,-1.5953,-1.595,-1.5953,-1.5953,-1.5947,-1.5949,-1.5942,-1.5942,-1.5938,-1.5946,-1.5942,-1.5947,-1.5946,-1.5954,-1.5954,-1.598,-1.5983,-1.5955,-1.5956,-1.5956,0,-1.5962,-1.5966,-1.5964,-1.5966,-1.5965,-1.5968,-1.5968,-1.5962,-1.5963,-1.5962,-1.5965,-1.5966,-1.5966,-1.5969,-1.5964,-1.5964,-1.5961,-1.597,-1.5961,-1.5964,-1.5962,-1.5962,-1.5963,-1.5972,-1.5972,-1.5973,-1.5973,0,-1.5981,-1.5979,-1.5981,-1.5983,-1.5985,-1.5985,-1.5985,-1.5987,-1.5981,-1.5982,-1.5984,-1.5985,-1.5986,-1.5987,-1.5986,-1.5984,-1.5978,-1.5976,-1.5978,-1.598,-1.5984,-1.5983,-1.5953,-1.5975,-1.5975,-1.5975,-1.5975,-1.5975,-1.5996,-1.6,-1.5999,-1.6002,-1.6002,-1.6003,-1.6006,-1.6003,-1.6005,-1.6006,-1.6002,-1.6006,-1.6004,-1.6003,-1.6001,-1.6003,-1.5999,-1.6001,-1.6002,-1.6003,-1.6005,-1.5983,-1.6003,-1.6003,-1.6003,-1.6003,-1.6003,0,-1.6015,-1.6015,-1.6018,-1.6019,-1.6022,-1.6017,-1.6017,-1.6019,-1.6022,-1.6022,-1.6023,-1.6026,-1.6027,-1.6023,-1.6024,-1.6027,-1.6024,-1.6027,-1.6027,-1.6027,-1.6008,-1.6007,-1.603,-1.603,-1.603,-1.603,-1.603,-1.603,-1.6026,-1.6032,-1.6031,-1.6037,-1.6037,-1.6041,-1.6042,-1.6042,-1.6042,-1.6046,-1.6048,-1.6046,-1.6044,-1.6045,-1.6046,-1.6045,-1.6046,-1.6051,-1.6048,-1.6031,-1.6028,-1.6026,-1.6025,-1.6051,-1.6051,-1.6067,-1.6068,-1.6068]},{"header":{"parameterUnit":"m.s-1","parameterCategory":1,"la1":30.2991,"la2":30.254,"lo1":-89.0895,"lo2":-89.0444,"dy":0.0017,"dx":0.0017,"nx":28,"ny":28,"refTime":"2024-06-12T03:00:00:Z","depth":0,"parameterNumber":3,"parameterNumberName":"V-component_of_WINDS"},"data":[0,0,0,0,0,0,0,0,0,0,0,0,0,0,0,0,0,0,0,0,0,0,0,0,0,0,0,0,0,0,0,0,0,0,0,0,0,0,0,0,0,0,0,0,0,0,0,0,0,0,0,0,0,0,0,0,0,0,0.0871,0.0869,0,0.0677,0.0674,0.0672,0.0516,0.0514,0.0513,0.0511,0.0316,0.0312,0.0308,0,0,0,0,0,0,0,0,0,0,0,0,0,0.1109,0.1105,0.0871,0.0869,0.0866,0.0677,0.0674,0.0672,0.0516,0.0514,0.0512,0.051,0.0317,0.0312,0.0308,0,0,0,0,0,0,0,0,0,0,0,0,0,0.097,0.1104,0.0872,0.0766,0.0754,0.0677,0.0674,0.0671,0.0516,0.0514,0.0512,0.0509,0.0318,0.0313,0.0307,0.0321,0,0,0.029,0.0288,0,0,0,0,0,0,0,0,0.0978,0.0961,0.0784,0.0773,0.076,0.0618,0.0686,0.0554,0.0517,0.0607,0.0511,0.0508,0.0418,0.0404,0.0373,0.0312,0.0303,0.029,0.0286,0.0284,0.0282,0,0,0,0,0,0,0,0.0987,0.0968,0.0794,0.0781,0.0767,0.0728,0.0706,0.066,0.0529,0.0599,0.0587,0.0566,0.0411,0.0379,0.0367,0.03,0.029,0.0285,0.0281,0.0279,0.0235,0.0237,0,0,0,0,0,0,0.1013,0.0978,0.08,0.0788,0.0865,0.0726,0.0701,0.0666,0.0529,0.0505,0.0568,0.0559,0.039,0.0374,0.036,0.0364,0.0284,0.0279,0.0276,0.0233,0.0236,0.0238,0,0,0,0,0,0,0.1019,0.0999,0.0808,0.0879,0.0852,0.0724,0.0687,0.0663,0.0631,0.0505,0.0481,0.0559,0.0387,0.0368,0.033,0.0355,0.0276,0.0271,0.0231,0.0234,0.0237,0.0374,0,0,0,0,0,0,0.1026,0.1002,0.1006,0.0881,0.0849,0.0782,0.0688,0.0661,0.0621,0.0608,0.0491,0.0469,0.0384,0.034,0.0325,0.0346,0.0267,0.0228,0.0232,0.0236,0.0366,0.0381,0.0394,0,0,0,0,0,0.1035,0.1054,0.1007,0.0987,0.0851,0.0784,0.0766,0.0667,0.0624,0.0626,0.0545,0.0473,0.0355,0.0337,0.0319,0.0339,0.0226,0.0231,0.0236,0.036,0.0378,0.0394,0,0,0,0,0,0,0.1188,0.1036,0.0982,0.0961,0.0886,0.0758,0.0759,0.069,0.0627,0.0618,0.0498,0.0473,0.0448,0.0389,0.0372,0.0342,0.0281,0.0282,0.0381,0.0397,0.0411,0.0425,0.0262,0,0,0,0,0,0.1219,0.1176,0.1046,0.1039,0.1004,0.0888,0.0855,0.0785,0.0703,0.0672,0.0588,0.0513,0.0457,0.0424,0.0367,0.0357,0.0328,0.0361,0.0375,0.0387,0.039,0.0376,0.0389,0.0254,0.0254,0.0254,0,0,0.1283,0.1194,0.1175,0.1068,0.1002,0.096,0.0863,0.0824,0.0791,0.0666,0.0624,0.056,0.0468,0.0443,0.0428,0.0394,0.042,0.0393,0.0404,0.04,0.0383,0.0396,0.0407,0.0258,0.0257,0.0256,0,0,0.1377,0.1307,0.1292,0.1227,0.1127,0.1049,0.1045,0.0926,0.0878,0.0834,0.0737,0.0697,0.0607,0.0543,0.05,0.0566,0.0496,0.0551,0.0623,0.0611,0.0622,0.063,0.0652,0.0661,0.0554,0.0554,0.0555,0,0.147,0.1402,0.1294,0.1258,0.1213,0.1095,0.1078,0.102,0.0909,0.088,0.0843,0.0723,0.0653,0.061,0.0626,0.0595,0.0586,0.0564,0.0629,0.0636,0.0643,0.0662,0.0671,0.0562,0.0561,0.056,0.0559,0,0.1519,0.1474,0.1474,0.1365,0.1319,0.1295,0.1181,0.1149,0.1081,0.1007,0.0962,0.0873,0.0794,0.0778,0.0714,0.0725,0.0707,0.0651,0.0586,0.0665,0.068,0.0687,0.0572,0.0569,0.0567,0.0565,0,0,0.1707,0.1535,0.1537,0.1484,0.1364,0.1326,0.1295,0.1215,0.1189,0.1115,0.1084,0.1008,0.0954,0.0904,0.0831,0.0821,0.0875,0.0765,0.0761,0.0787,0.088,0.0922,0.0932,0.0828,0.0829,0.083,0.0887,0,0.1781,0.1716,0.1615,0.1583,0.1538,0.1424,0.1395,0.1318,0.1247,0.1199,0.112,0.1067,0.1002,0.097,0.0955,0.0872,0.0892,0.0867,0.0798,0.0797,0.0824,0.094,0.0985,0.1043,0.0892,0.0893,0.0894,0,0.186,0.1788,0.1752,0.163,0.1607,0.1584,0.1501,0.1457,0.1366,0.1314,0.1257,0.1176,0.1135,0.1077,0.1018,0.1003,0.0969,0.0923,0.0923,0.0912,0.085,0.0932,0.106,0.1068,0.0903,0.0902,0.0902,0,0.1997,0.1893,0.1856,0.1815,0.1673,0.1659,0.1599,0.1506,0.1463,0.1391,0.1362,0.1287,0.1246,0.119,0.109,0.1057,0.1042,0.0976,0.0997,0.1,0.0999,0.1,0.1123,0.0979,0.0979,0.0979,0.0979,0,0.209,0.2072,0.1915,0.1893,0.1867,0.1751,0.173,0.166,0.1577,0.1538,0.1435,0.1401,0.1272,0.1223,0.1144,0.1106,0.1089,0.1046,0.1025,0.1054,0.106,0.103,0.1023,0.0981,0.0981,0.098,0.098,0,0.224,0.2135,0.2086,0.1955,0.1921,0.1908,0.1795,0.1769,0.169,0.1642,0.1624,0.1502,0.1438,0.1332,0.1239,0.1186,0.1161,0.1127,0.1192,0.1179,0.1206,0.1204,0.1312,0.1319,0.1174,0.1176,0.1177,0,0.2306,0.2288,0.2153,0.2119,0.2062,0.2009,0.1964,0.1848,0.1805,0.1698,0.1684,0.1612,0.1547,0.145,0.1353,0.128,0.1242,0.1285,0.1231,0.126,0.1241,0.1242,0.1239,0.1298,0.13,0.1302,0.1303,0,0.2433,0.2381,0.2319,0.2238,0.2186,0.2118,0.2044,0.2022,0.189,0.1847,0.1779,0.1729,0.1631,0.156,0.1472,0.141,0.1335,0.1321,0.1321,0.1351,0.1388,0.1366,0.1225,0.1319,0.1317,0.1316,0.1315,0.1315,0.2541,0.2519,0.2419,0.2353,0.2284,0.2217,0.2184,0.2099,0.204,0.195,0.1886,0.1822,0.1727,0.1601,0.1544,0.1491,0.1458,0.146,0.146,0.1462,0.1472,0.1397,0.1475,0.1475,0.1474,0.1474,0.1473,0,0.2662,0.2591,0.2531,0.2428,0.2376,0.2307,0.222,0.2181,0.2126,0.2044,0.1981,0.1902,0.1831,0.1727,0.1648,0.1626,0.1589,0.1609,0.1609,0.1595,0.1508,0.1514,0.164,0.164,0.164,0.164,0.164,0.164,0.2718,0.2675,0.261,0.2531,0.246,0.2395,0.2351,0.2288,0.2221,0.2136,0.2076,0.2008,0.1916,0.1829,0.176,0.1731,0.1706,0.1737,0.1698,0.1618,0.1602,0.1588,0.1593,0.1733,0.1733,0.1789,0.179,0.179]}]]